This is the latest recevied weather packets stored in our database for station/object N5PA. If no packets are shown the sender has not sent any weather packets the latest 10 day(s).
| Time | Temp. | Humidity | Pressure | Rain* | Wind** | Luminosity | Snow |
|---|---|---|---|---|---|---|---|
| 1777557608 | 19.44° C | 30% | 1013.8 hPa | 0 mm | - | 1004 W/m² | - |
| 1777557307 | 19.44° C | 30% | 1013.6 hPa | 0 mm | - | 1002 W/m² | - |
| 1777557008 | 19.44° C | 30% | 1013.6 hPa | 0.25 mm | - | 1005 W/m² | - |
| 1777556708 | 19.44° C | 30% | 1013.6 hPa | 0.51 mm | - | 1007 W/m² | - |
| 1777556408 | 19.44° C | 31% | 1013.7 hPa | 0.76 mm | - | 1007 W/m² | - |
| 1777556107 | 19.44° C | 31% | 1013.6 hPa | 0.76 mm | - | 1000 W/m² | - |
| 1777555807 | 18.89° C | 31% | 1013.5 hPa | 1.02 mm | - | 1005 W/m² | - |
| 1777555508 | 18.89° C | 32% | 1013.4 hPa | 1.02 mm | - | 1007 W/m² | - |
| 1777555208 | 18.89° C | 32% | 1013.4 hPa | 1.27 mm | - | 1005 W/m² | - |
| 1777554907 | 18.89° C | 32% | 1013.2 hPa | 1.27 mm | - | 1000 W/m² | - |
| 1777554307 | 18.33° C | 32% | 1013.3 hPa | 1.52 mm | - | 1004 W/m² | - |
| 1777554007 | 18.89° C | 32% | 1013 hPa | 1.78 mm | - | 1007 W/m² | - |
| 1777553707 | 18.89° C | 32% | 1012.8 hPa | 1.78 mm | - | 1002 W/m² | - |
| 1777553408 | 18.89° C | 32% | 1013.1 hPa | 1.52 mm | - | 1005 W/m² | - |
| 1777553107 | 18.89° C | 32% | 1013.3 hPa | 1.52 mm | - | 1007 W/m² | - |
| 1777552807 | 18.89° C | 32% | 1013.5 hPa | 1.78 mm | - | 1007 W/m² | - |
| 1777552507 | 18.89° C | 32% | 1013.8 hPa | 2.54 mm | - | 1007 W/m² | - |
| 1777552207 | 18.89° C | 32% | 1013.7 hPa | 7.87 mm | - | 1005 W/m² | - |
| 1777551907 | 18.89° C | 32% | 1013.6 hPa | 11.94 mm | - | 1007 W/m² | - |
| 1777551607 | 18.89° C | 32% | 1013.4 hPa | 11.94 mm | - | 1002 W/m² | - |
| 1777551307 | 18.89° C | 32% | 1013.4 hPa | 11.94 mm | - | 1007 W/m² | - |
| 1777551008 | 18.89° C | 32% | 1013.1 hPa | 11.68 mm | - | 1007 W/m² | - |
| 1777550708 | 18.89° C | 32% | 1013 hPa | 11.68 mm | - | 1007 W/m² | - |
| 1777550407 | 18.89° C | 33% | 1012.8 hPa | 11.43 mm | - | 1002 W/m² | - |
| 1777550108 | 18.89° C | 33% | 1012.8 hPa | 11.43 mm | - | 1007 W/m² | - |
* Rain latest hour (hover to see other rain measurements)
** Current wind speed in m/s (hover to see current wind gust speed)